TimeCST,TemperatureF,Dew PointF,Humidity,Sea Level PressureIn,VisibilityMPH,Wind Direction,Wind SpeedMPH,Gust SpeedMPH,PrecipitationIn,Events,Conditions,WindDirDegrees,DateUTC
12:53 AM,35.1,28.9,78,30.48,8.0,East,4.6,-,N/A,,Clear,90,2012-11-18 06:53:00
1:53 AM,33.1,28.9,85,30.47,8.0,East,4.6,-,N/A,,Clear,80,2012-11-18 07:53:00
2:53 AM,34.0,28.9,82,30.47,8.0,ENE,4.6,-,N/A,,Clear,70,2012-11-18 08:53:00
3:53 AM,32.0,28.0,85,30.47,8.0,ENE,4.6,-,N/A,,Clear,60,2012-11-18 09:53:00
4:53 AM,30.0,27.0,88,30.48,7.0,East,5.8,-,N/A,,Clear,90,2012-11-18 10:53:00
5:53 AM,28.0,25.0,88,30.48,6.0,East,5.8,-,N/A,,Clear,90,2012-11-18 11:53:00
6:53 AM,28.9,27.0,92,30.48,4.0,East,5.8,-,N/A,,Clear,90,2012-11-18 12:53:00
7:53 AM,34.0,30.0,85,30.49,5.0,East,3.5,-,N/A,,Clear,90,2012-11-18 13:53:00
8:53 AM,41.0,33.1,73,30.48,7.0,ESE,3.5,-,N/A,,Clear,110,2012-11-18 14:53:00
9:53 AM,48.0,34.0,58,30.47,10.0,ESE,4.6,-,N/A,,Clear,120,2012-11-18 15:53:00
10:53 AM,51.1,33.1,50,30.45,10.0,South,6.9,-,N/A,,Clear,180,2012-11-18 16:53:00
11:53 AM,54.0,30.9,41,30.42,10.0,South,4.6,-,N/A,,Clear,180,2012-11-18 17:53:00
12:53 PM,57.0,30.9,37,30.40,10.0,SSE,6.9,-,N/A,,Clear,160,2012-11-18 18:53:00
2:53 PM,55.0,28.9,37,30.38,10.0,SE,3.5,-,N/A,,Clear,140,2012-11-18 20:53:00
3:53 PM,50.0,32.0,50,30.38,10.0,East,4.6,-,N/A,,Clear,100,2012-11-18 21:53:00
4:53 PM,48.0,30.0,50,30.38,10.0,ESE,6.9,-,N/A,,Clear,110,2012-11-18 22:53:00
5:53 PM,44.1,28.9,55,30.40,10.0,ESE,4.6,-,N/A,,Clear,110,2012-11-18 23:53:00
6:53 PM,43.0,28.0,56,30.40,10.0,East,3.5,-,N/A,,Clear,100,2012-11-19 00:53:00
7:53 PM,44.1,30.0,58,30.40,10.0,ESE,8.1,-,N/A,,Clear,110,2012-11-19 01:53:00
8:53 PM,42.1,32.0,67,30.39,10.0,ESE,6.9,-,N/A,,Clear,110,2012-11-19 02:53:00
9:53 PM,39.9,30.9,70,30.38,9.0,ESE,4.6,-,N/A,,Clear,110,2012-11-19 03:53:00
10:53 PM,37.9,30.9,76,30.38,9.0,ESE,3.5,-,N/A,,Clear,110,2012-11-19 04:53:00
11:53 PM,37.0,30.9,79,30.36,9.0,ESE,3.5,-,N/A,,Clear,110,2012-11-19 05:53:00